Terminal Aerodrome Forecast
Issued by NWS

Home | Current Version | Previous Version | Graphics & Text | Print | Product List | Glossary On
Versions: 1 2 3 4 5 6 7 8 9 10 11 12 13 14 15 16 17 18 19 20 21
000
FTUS42 KMHX 281851 AAA
TAFOAJ
TAF AMD
KOAJ 281851Z 2819/2918 05006KT P6SM VCTS BKN035CB BKN050
      TEMPO 2819/2822 VRB15G25KT 3SM TSRA BR BKN025CB
     FM290300 VRB03KT P6SM BKN080
     FM290700 VRB03KT 5SM BR BKN007 BKN070
     FM291400 02006KT P6SM BKN100
      AMD LTD TO CLD VIS AND WIND=

USA.gov is the U.S. government's official web portal to all federal, state and local government web resources and services.